Location: Arbon
(43.0005°N, 0.7472°E)
Time: 19:10:58
(UTC+00:00)

Cosmos 2219 Rocket - Pass Details

Date: 07 August 2020
Orbit: 826 x 848 km, 71.0° (Epoch: 24 September)

Event Time Altitude Azimuth Distance (km) Brightness Sun altitude
Rises 00:03:42 0° 338° (NNW) 3,413 6.3 -30.7°
Reaches altitude 10° 00:06:12 10° 343° (NNW) 2,477 5.4 -30.7°
Enters shadow 00:11:38 56° 54° (NE) 1,002 2.6 -30.6°
